Other Public Products
Issued by NWS Charleston, SC

Current Version | Previous Version | Graphics & Text | Print | Product List | Glossary Off
Versions: 1 2 3 4 5 6 7 8 9 10 11 12 13 14 15 16 17 18 19 20 21 22 23 24 25 26 27 28 29 30 31 32 33 34 35 36 37 38 39 40 41 42 43 44 45 46 47 48 49 50

000
FPUS82 KCHS 260927
OPUCHS

TEST...KCHS/KSAV Gateway Observations...TEST
National Weather Service Charleston SC
500 AM EDT MON JUN 26 2017

NOTE: "fair" indicates few or no clouds below 12,000 feet with no
significant weather and/or obstructions to visibility.

SCZ050-WAZ558-NCZ071-TXZ119-213-PAZ071-DCZ001-FLZ074-172-MI076-
NYZ176-178-MAZ016-IL014-TNZ027-NJZ106-GAZ044-MD014-261000-

...Gateway Observations for Charleston International...

CITY           SKY/WX    TMP DP  RH WIND       PRES   REMARKS
Chas Airport   CLOUDY    73  72  96 N5        30.04F
Seattle        MOCLDY    60  55  83 S12       29.92S
Charlotte      PTCLDY    62  59  90 NW3       30.13R
Dallas DFW     CLOUDY    76  67  73 SE6       30.13F
Dallas Love    PTCLDY    76  64  66 E7        30.14F
Philladelphia  PTCLDY    67  49  52 NW8       30.03R
Wash National  PTCLDY    70  48  45 NW10      30.07R
Baltimore      PTCLDY    60  51  72 W5        30.05R
Miami          PTCLDY    83  75  77 E8        30.06S HX  90
Detroit        MOCLDY    56  48  74 SW8       30.03R
Newark         PTCLDY    64  51  62 NW5       30.00S
Laguardia      NOT AVBL
J F K          PTCLDY    66  51  58 NW5       30.01R
Boston Logan   PTCLDY    64  53  67 W10       29.94R
Ft. Lauderdale PTCLDY    82  76  81 SE10      30.05S
Chicago O`Hare CLEAR     54  49  83 W6        30.09S
Chicago Midway CLEAR     57  50  77 W5        30.09F
Houston Bush   MOCLDY    74  71  91 NE7       30.10R
Houston Hobby  CLOUDY    78  73  84 NE6       30.08S
Nashville      MOCLDY    61  57  87 CALM      30.16S
Atlanta        PTCLDY    66  56  70 N10       30.14S

$$

GAZ044-118-TXZ119-213-NCZ071-DCZ001-MDZ014-506-PAZ021-071-NJZ106-
NYZ176-178-MAZ106-OHZ011-021-055-MIZ076-KYZ091-ILZ014-INZ047-
MNZ060-ONZ431-261000-

...Gateway Observations for Savannah International...

CITY           SKY/WX    TMP DP  RH WIND       PRES   REMARKS
Savannah Arpt  CLOUDY    76  73  91 N3        30.06F
Atlanta        PTCLDY    66  56  70 N10       30.14S
Charlotte      PTCLDY    62  59  90 NW3       30.13R
Dallas DFW     CLOUDY    76  67  73 SE6       30.13F
Houston Bush   MOCLDY    74  71  91 NE7       30.10R
Wash National  PTCLDY    70  48  45 NW10      30.07R
Wash Dulles    PTCLDY    61  49  64 NW5       30.07R
Baltimore      PTCLDY    60  51  72 W5        30.05R
Philadelphia   PTCLDY    67  49  52 NW8       30.03R
Newark         PTCLDY    64  51  62 NW5       30.00S
Laguardia      NOT AVBL
J F K          PTCLDY    66  51  58 NW5       30.01R
Boston         PTCLDY    64  53  67 W10       29.94R
Pittsburg      PTCLDY    55  46  71 CALM      30.06S
Akron          PTCLDY    56  46  69 SW6       30.06S
Cleveland      PTCLDY    57  49  74 SW8       30.05S
Cincinnati     PTCLDY    56  50  80 W6        30.13S
Columbus       PTCLDY    54  52  93 CALM      30.09R
Detroit        MOCLDY    56  48  74 SW8       30.03R
Chicago O`Hare CLEAR     54  49  83 W6        30.09S
Minneapolis    CLEAR     53  44  71 NW6       30.15R
Indianapolis   CLEAR     54  49  83 SW7       30.15R
Toronto Canada MOCLDY    57  52  82 W5        29.95S

$$




USA.gov is the U.S. government's official web portal to all federal, state and local government web resources and services.